GEFSSE_con_cape1000_162.txt.gz
Probability
3 13 39 42 45 52 55 58 58 61 58 52 55 52 48 45 52 45 45 48 42 42 45 52 48 52 55 58 65 65 71 61 68 71 68 68 65 65 68 65 68 58 52
6 13 42 39 45 52 55 55 58 48 45 48 42 42 39 35 35 35 39 48 48 48 48 48 48 55 52 55 58 61 61 65 58 65 68 58 61 65 61 65 65 48 52
13 19 26 32 42 42 45 45 42 39 39 42 39 35 35 32 35 35 35 29 39 39 35 39 45 45 48 52 58 61 65 65 61 65 65 39 48 65 61 55 55 52 45
13 13 19 32 39 35 39 35 35 35 32 39 32 39 32 32 32 32 29 32 29 32 35 35 39 39 42 42 45 52 61 52 61 55 16 19 29 55 58 52 48 45 48
6 10 16 32 42 35 32 29 29 29 23 23 19 26 26 23 26 26 32 29 29 29 32 32 32 39 45 42 42 42 58 58 52 26 10 6 16 52 65 61 55 52 58
6 13 19 29 32 26 23 23 19 13 16 16 13 13 13 16 16 16 16 16 19 23 26 29 32 32 35 39 35 39 48 35 19 10 6 13 19 48 58 61 61 58 58
6 6 13 19 10 13 13 10 10 10 6 13 13 13 13 13 13 13 10 6 13 23 23 26 19 23 32 32 29 32 39 29 3 6 10 10 23 55 55 61 61 55 55
6 6 6 6 10 10 6 6 3 6 6 6 6 6 6 10 6 6 6 6 6 13 16 26 29 23 23 39 42 39 35 19 3 10 10 16 48 52 61 65 65 55 48
3 3 3 6 3 3 6 3 6 10 10 6 6 3 3 3 6 6 6 10 10 10 10 19 23 16 23 35 35 35 39 26 0 3 10 10 45 55 55 58 61 55 45
3 3 0 0 0 0 0 0 0 3 0 0 0 3 6 6 3 3 3 6 6 6 6 16 19 23 26 26 35 32 23 10 0 0 0 23 58 55 55 55 55 42 48
3 3 3 3 0 0 0 0 0 0 0 0 0 0 0 0 0 0 3 10 6 3 6 10 16 16 13 10 16 16 6 0 0 0 0 32 52 48 48 52 48 39 39
3 3 3 3 0 0 0 0 0 0 0 0 0 0 0 0 0 0 0 0 3 3 3 13 10 0 0 0 3 0 0 0 0 0 6 42 45 45 42 42 42 35 35
3 3 3 0 0 0 0 0 0 0 0 0 0 0 0 0 0 0 0 0 0 0 0 0 0 0 0 0 0 0 0 0 0 0 0 39 42 35 35 35 32 29 39
0 0 0 0 0 0 0 0 0 0 0 0 0 0 0 0 0 0 0 0 0 0 0 0 0 0 0 0 0 0 0 0 0 0 3 32 39 39 32 29 29 39 39
0 0 0 0 0 0 0 0 0 0 0 0 0 0 0 0 0 0 0 0 0 0 0 0 0 0 0 0 0 0 0 0 0 0 0 19 45 39 35 35 35 32 42
0 0 0 0 0 0 0 0 0 0 0 0 0 0 0 0 0 0 0 0 0 0 0 0 0 0 0 0 0 0 0 0 0 0 0 0 29 39 39 35 35 23 32
0 0 0 0 0 0 0 0 0 0 0 0 0 0 0 0 0 0 0 0 0 0 0 0 0 0 0 0 0 0 0 0 0 0 0 0 0 13 35 32 29 29 26
0 0 0 0 0 0 0 0 0 0 0 0 0 0 0 0 0 0 0 0 0 0 0 0 0 0 0 0 0 0 0 0 0 0 0 0 0 0 10 16 29 32 35
0 0 0 0 0 0 0 0 0 0 0 0 0 0 0 0 0 0 0 0 0 0 0 0 0 0 0 0 0 0 0 0 0 0 0 0 0 0 3 6 16 16 26
0 0 0 0 0 0 0 0 0 0 0 0 0 0 0 0 0 0 0 0 0 0 0 0 0 0 0 0 0 0 0 0 0 0 0 0 0 0 0 0 0 0 10
0 0 0 0 0 0 0 0 0 0 0 0 0 0 0 0 0 0 0 0 0 0 0 0 0 0 0 0 0 0 0 0 0 0 0 0 0 0 0 0 0 0 0
0 0 0 0 0 0 0 0 0 0 0 0 0 0 0 0 0 0 0 0 0 0 0 0 0 0 0 0 0 0 0 0 0 0 0 0 0 0 0 0 0 0 0
0 0 0 0 0 0 0 0 0 0 0 0 0 0 0 0 0 0 0 0 0 0 0 0 0 0 0 0 0 0 0 0 0 0 0 0 0 0 0 0 0 0 0
0 0 0 0 0 0 0 0 0 0 0 0 0 0 0 0 0 0 0 0 0 0 0 0 0 0 0 0 0 0 0 0 0 0 0 0 0 0 0 0 0 0 0
0 0 0 0 0 0 0 0 0 0 0 0 0 0 0 0 0 0 0 0 0 0 0 0 0 0 0 0 0 0 0 0 0 0 0 0 0 0 0 0 0 0 0
0 0 0 0 0 0 0 0 0 0 0 0 0 0 0 0 0 0 0 0 0 0 0 0 0 0 0 0 0 0 0 0 0 0 0 0 0 0 0 0 0 0 0

GEFSSE_con_cape1000_168.txt.gz
Probability
10 19 26 32 32 35 39 42 39 48 55 55 52 58 52 45 45 52 52 52 48 48 48 52 55 55 52 52 52 52 58 58 65 68 68 58 65 58 52 52 52 55 52
3 13 26 39 35 35 39 39 39 45 45 45 42 45 42 42 39 39 35 39 39 39 39 39 35 45 55 55 58 55 55 58 61 61 55 58 68 71 68 65 55 55 45
10 16 16 26 32 32 29 32 32 42 42 42 39 32 29 29 35 39 35 35 39 42 45 48 42 35 42 45 48 52 55 65 58 42 48 55 65 58 58 55 52 45 42
10 10 10 26 26 29 26 29 29 29 35 32 35 32 26 26 29 35 35 35 35 32 35 35 39 35 35 39 48 52 48 48 45 45 48 42 45 52 58 48 42 48 45
10 10 13 23 23 26 29 26 26 26 26 23 29 26 26 26 26 35 35 35 32 29 29 32 29 26 35 39 42 48 48 39 35 48 48 52 65 65 55 52 48 48 55
10 10 10 19 19 23 23 23 16 16 16 16 13 19 23 19 19 23 26 26 26 19 19 26 26 29 23 26 35 39 29 26 35 45 55 52 55 58 55 61 52 52 55
6 10 6 6 10 6 10 6 10 13 13 13 13 16 16 16 10 10 10 13 13 16 23 26 23 29 29 32 35 35 26 19 19 42 45 45 58 52 52 55 48 52 48
3 6 6 6 3 6 10 6 6 10 10 6 6 6 6 13 13 13 10 10 13 13 19 26 29 26 32 35 39 32 29 26 16 19 35 42 48 45 45 55 45 45 52
6 6 3 3 3 3 3 6 6 6 6 6 6 6 6 6 13 10 6 6 10 19 23 29 29 35 35 35 39 35 29 29 23 23 16 32 42 39 45 48 48 45 48
3 3 3 3 3 3 3 6 6 6 3 0 0 0 6 10 10 10 6 6 3 3 13 23 23 23 16 32 29 19 23 16 16 13 19 23 35 39 52 48 45 42 48
0 3 0 0 0 0 0 0 0 0 0 0 0 0 0 0 0 0 3 13 10 6 13 16 16 26 23 23 13 13 16 13 13 16 23 39 45 42 39 42 42 42 39
0 0 0 0 0 0 0 0 0 0 0 0 0 0 0 0 0 0 0 0 6 6 10 13 13 10 6 6 3 6 13 10 10 23 29 42 42 39 35 35 45 45 39
0 0 0 0 0 0 0 0 0 0 0 0 0 0 0 0 0 0 0 0 0 0 0 6 6 6 6 10 3 3 10 6 16 16 19 29 32 35 35 32 42 42 35
0 0 0 0 0 0 0 0 0 0 0 0 0 0 0 0 0 0 0 0 0 6 13 10 13 6 3 3 3 3 6 13 13 16 29 32 26 32 42 42 42 42 42
0 0 0 0 0 0 0 0 0 0 0 0 0 0 0 0 0 0 0 0 0 3 6 6 10 6 6 0 0 3 6 10 10 6 19 19 32 48 42 45 45 48 45
0 0 0 0 0 0 0 3 3 3 3 0 0 0 0 0 0 0 0 0 0 0 0 3 6 13 10 10 3 3 6 3 3 3 6 16 16 19 26 48 42 35 35
0 0 0 0 0 0 0 0 0 0 0 0 0 0 0 0 0 0 0 0 0 0 0 0 0 10 6 6 3 6 6 3 0 3 3 6 10 13 19 23 32 32 35
0 0 0 0 0 0 0 0 0 0 0 0 0 0 0 0 0 0 0 0 0 0 0 3 3 10 10 6 3 6 10 6 3 3 3 3 10 10 13 13 19 23 26
0 0 0 0 0 0 0 0 0 0 0 0 0 0 0 0 0 0 0 0 0 0 3 3 6 3 3 0 3 3 6 3 6 3 3 6 3 6 6 6 10 19 26
0 0 0 0 0 0 0 0 0 0 0 0 0 0 0 0 0 0 0 0 0 0 6 3 6 3 3 3 0 0 3 6 10 10 0 6 6 6 3 3 6 6 10
0 0 0 0 0 0 0 0 0 0 0 0 0 0 0 0 0 0 0 0 0 3 0 0 3 3 3 3 0 3 3 0 0 6 6 3 6 6 10 6 3 3 13
0 0 0 0 0 0 0 0 0 0 0 0 0 0 0 0 0 0 0 0 0 10 3 3 6 3 0 3 3 0 0 0 3 0 0 0 0 6 6 0 6 3 10
0 0 0 0 0 0 0 0 0 0 0 0 0 0 0 0 0 0 0 0 0 0 0 3 3 3 3 3 3 0 0 0 3 0 3 3 0 0 3 3 0 6 3
0 0 0 0 0 0 0 0 0 0 0 0 0 0 0 0 0 0 0 0 0 0 0 0 0 3 3 3 3 3 3 3 3 3 0 0 0 0 0 0 0 0 6
0 0 0 0 0 0 0 0 0 0 0 0 0 0 0 0 0 0 0 0 0 0 0 0 0 0 0 3 3 3 0 0 0 0 0 0 0 0 0 3 3 3 3
0 0 3 0 0 0 0 0 0 0 0 0 0 0 0 0 0 0 0 0 0 0 0 0 0 0 0 0 0 0 0 0 0 0 0 0 0 3 3 3 3 3 3

GEFSSE_con_cape1000_174.txt.gz
Probability
35 26 58 45 39 45 42 48 42 42 42 45 45 39 42 42 45 48 52 52 48 45 55 52 45 48 55 52 55 58 61 61 61 65 68 68 65 65 61 52 65 65 55
23 23 45 39 42 39 35 35 35 39 39 42 39 42 42 42 42 42 45 48 48 42 39 42 35 39 45 55 55 55 58 52 52 52 65 71 71 71 68 61 58 61 55
19 23 29 39 39 35 32 35 32 32 39 42 42 42 39 39 39 39 39 35 45 45 42 35 39 29 32 35 42 52 48 48 58 52 65 65 68 68 71 61 61 65 55
10 19 19 32 32 35 32 32 29 29 32 32 32 35 39 35 32 32 29 35 32 32 45 39 35 29 35 32 42 42 32 39 58 58 45 42 52 71 65 61 58 52 55
10 10 26 29 19 26 29 26 29 29 29 26 23 23 23 23 32 32 26 26 26 23 26 26 32 32 32 26 39 32 29 39 55 48 39 48 39 61 68 58 58 58 58
6 6 19 19 23 26 19 16 19 13 16 19 23 23 23 16 16 16 19 16 19 19 23 26 35 29 26 26 26 23 32 48 48 35 29 45 48 58 48 48 45 52 61
6 6 3 16 23 13 13 13 13 13 13 10 13 13 13 13 13 13 10 13 16 23 19 23 23 23 26 29 29 26 29 35 32 26 32 45 48 61 52 48 45 48 45
6 3 3 13 10 10 6 6 6 6 6 10 10 10 10 10 10 6 10 13 19 23 23 26 29 29 32 29 29 23 32 52 26 19 35 39 68 58 58 48 45 45 45
3 3 3 3 3 6 6 6 6 6 6 6 6 10 13 13 6 10 10 6 10 16 26 23 26 23 19 19 10 19 32 42 23 13 16 35 58 55 55 48 48 48 52
3 3 3 3 3 3 3 6 6 6 6 6 6 6 10 13 6 10 10 10 13 16 23 23 23 23 13 19 13 13 26 19 10 16 13 39 65 48 48 42 48 48 52
3 3 3 3 3 3 3 3 3 0 0 0 0 6 10 0 0 0 3 10 13 10 16 16 19 26 13 10 13 16 16 13 10 16 23 58 58 42 45 42 42 39 42
3 3 3 3 3 0 0 0 0 0 0 0 0 0 0 0 0 0 0 10 10 3 16 23 23 19 13 10 13 13 3 6 6 6 23 58 55 52 52 42 52 52 55
0 0 0 0 0 0 0 0 0 0 0 0 0 0 0 0 0 0 0 0 3 6 3 6 19 6 6 6 3 3 6 6 10 6 19 58 48 42 42 52 55 52 48
0 0 0 0 0 0 0 0 0 0 0 0 0 0 0 0 0 0 0 0 3 0 0 10 6 6 3 0 0 0 3 6 10 6 19 61 58 45 45 48 52 45 48
0 0 0 0 0 0 0 0 0 0 0 0 0 0 0 0 0 0 0 0 3 0 0 3 3 3 3 3 0 0 0 0 0 3 0 39 48 45 45 45 42 52 45
0 0 0 0 0 0 0 0 0 0 0 0 0 0 0 0 0 0 0 0 0 0 0 0 3 3 3 6 0 0 0 0 0 3 0 13 23 32 39 29 29 32 29
0 0 0 0 0 0 0 0 0 0 0 0 0 0 0 0 0 0 0 0 0 0 0 0 3 3 3 0 0 0 0 0 3 0 3 3 6 23 35 35 35 32 26
0 0 0 0 0 0 0 0 0 0 0 0 0 0 0 0 0 0 0 0 0 0 0 0 3 3 0 0 0 0 0 0 0 0 3 3 3 3 16 29 29 23 23
0 0 0 0 0 0 0 0 0 0 0 0 0 0 0 0 0 0 0 0 0 0 0 0 0 0 0 0 0 0 0 0 0 3 3 3 3 0 0 6 19 16 23
0 0 0 0 0 0 0 0 0 0 0 0 0 0 0 0 0 0 0 0 0 0 0 0 0 0 0 0 0 0 0 0 0 0 0 0 0 0 0 0 0 3 16
0 0 0 0 0 0 0 0 0 0 0 0 0 0 0 0 0 0 0 0 0 0 0 0 0 0 0 0 0 0 0 0 0 0 3 0 0 0 0 0 0 0 0
0 0 0 0 0 0 0 0 0 0 0 0 0 0 0 0 0 0 0 0 0 0 0 0 0 0 0 0 0 0 0 0 0 0 0 0 0 0 0 0 0 0 0
0 0 0 0 0 0 0 0 0 0 0 0 0 0 0 0 0 0 0 0 0 0 0 0 0 0 0 0 0 0 0 0 0 0 0 0 0 0 0 0 0 0 0
0 0 0 0 0 0 0 0 0 0 0 0 0 0 0 0 0 0 0 0 0 0 0 0 0 0 0 0 0 0 0 0 0 0 0 0 0 0 0 0 0 0 0
0 0 0 0 0 0 0 0 0 0 0 0 0 0 0 0 0 0 0 0 0 0 0 0 0 0 0 0 0 0 0 0 0 0 0 0 0 0 0 0 0 0 3
0 0 0 0 0 0 0 0 0 0 0 0 0 0 0 0 0 0 0 0 0 0 0 0 0 0 0 0 0 0 0 0 0 0 0 0 0 0 0 0 0 3 3

GEFSSE_con_cape1000_180.txt.gz
Probability
3 19 45 48 52 52 52 52 48 48 55 55 52 45 45 45 48 52 48 55 55 52 52 42 45 52 52 52 55 65 68 61 61 61 58 65 61 61 61 58 61 58 52
10 23 45 45 45 48 45 39 39 39 45 45 45 45 42 45 45 45 45 45 39 39 39 35 35 42 48 42 55 58 55 55 55 55 65 58 68 71 65 65 71 61 61
13 26 39 39 42 45 42 42 35 39 42 42 42 45 45 45 42 45 45 39 35 32 26 23 29 29 35 48 45 48 52 55 58 61 61 45 58 65 61 61 65 65 58
13 19 26 35 45 35 32 29 29 32 35 35 35 35 35 35 35 39 32 32 29 26 26 23 26 26 32 35 45 48 48 52 52 48 23 35 42 58 52 58 58 55 61
13 16 19 35 32 29 26 29 29 29 29 29 32 23 19 19 19 19 19 23 19 23 23 23 26 19 26 26 35 48 45 55 52 29 23 23 32 58 58 55 45 58 48
10 6 19 29 26 26 19 19 23 23 13 13 16 16 16 16 13 16 19 16 16 19 16 16 16 19 19 29 39 45 42 39 26 10 16 29 32 48 52 52 52 58 45
6 6 13 19 19 16 16 16 13 13 13 13 13 13 13 10 10 13 13 13 13 16 19 23 26 23 19 26 42 29 45 35 16 10 23 32 42 58 42 48 58 48 52
3 6 6 19 19 16 10 10 10 10 10 10 10 10 13 10 13 13 13 13 16 16 23 13 26 19 19 29 35 29 35 39 16 19 19 26 42 55 45 52 52 52 35
3 3 3 6 6 13 13 6 6 6 6 6 6 10 10 10 10 13 13 10 16 16 19 16 16 13 13 26 29 39 45 35 3 10 19 19 45 45 39 39 42 42 39
3 3 3 3 3 3 6 6 6 6 6 6 10 6 13 13 10 10 10 13 10 13 13 19 13 13 10 26 32 26 23 16 6 10 13 23 48 39 42 39 39 39 32
3 3 3 3 3 3 3 6 3 6 10 6 6 6 10 3 3 3 6 13 6 6 23 19 13 13 6 13 29 16 10 6 6 10 16 45 58 48 45 39 39 42 39
3 3 3 3 3 0 3 0 0 0 0 0 0 0 0 0 0 0 6 13 13 10 10 10 10 3 3 0 3 6 0 0 3 10 19 52 55 48 52 52 45 45 45
3 3 0 0 0 0 0 0 0 0 0 0 0 0 0 0 0 0 0 0 0 0 0 3 0 0 0 0 3 3 0 0 3 3 23 52 48 45 45 52 42 42 42
3 3 0 0 0 0 0 0 0 0 0 0 0 0 0 0 0 0 0 0 0 0 0 0 0 0 0 0 0 0 0 0 0 0 23 55 48 52 42 42 39 42 42
0 0 0 0 0 0 0 0 0 0 0 0 0 0 0 0 0 0 0 0 0 0 0 0 0 0 0 0 0 0 0 0 0 0 3 39 55 45 35 32 42 35 32
0 0 0 0 0 0 0 0 0 0 0 0 0 0 0 0 0 0 0 0 0 0 0 0 0 0 0 0 0 0 0 0 0 0 0 13 29 42 39 39 32 35 29
0 0 0 0 0 0 0 0 0 0 0 0 0 0 0 0 0 0 0 0 0 0 0 0 0 0 0 0 0 0 0 0 0 0 0 0 3 19 32 32 29 29 32
0 0 0 0 0 0 0 0 0 0 0 0 0 0 0 0 0 0 0 0 0 0 0 0 0 0 0 0 0 0 0 0 0 0 0 0 0 0 6 26 19 23 19
0 0 0 0 0 0 0 0 0 0 0 0 0 0 0 0 0 0 0 0 0 0 0 0 0 0 0 0 0 0 0 0 0 0 0 0 0 0 0 0 19 23 23
0 0 0 0 0 0 0 0 0 0 0 0 0 0 0 0 0 0 0 0 0 0 0 0 0 0 0 0 0 0 0 0 0 0 0 0 0 0 0 0 0 0 16
0 0 0 0 0 0 0 0 0 0 0 0 0 0 0 0 0 0 0 0 0 0 0 0 0 0 0 0 0 0 0 0 0 0 0 0 0 0 0 0 0 0 0
0 0 0 0 0 0 0 0 0 0 0 0 0 0 0 0 0 0 0 0 0 0 0 0 0 0 0 0 0 0 0 0 0 0 0 0 0 0 0 0 0 0 0
0 0 0 0 0 0 0 0 0 0 0 0 0 0 0 0 0 0 0 0 0 0 0 0 0 0 0 0 0 0 0 0 0 0 0 0 0 0 0 0 0 0 0
0 0 0 0 0 0 0 0 0 0 0 0 0 0 0 0 0 0 0 0 0 0 0 0 0 0 0 0 0 0 0 0 0 0 0 0 0 0 0 0 0 0 0
0 0 0 0 0 0 0 0 0 0 0 0 0 0 0 0 0 0 0 0 0 0 0 0 0 0 0 0 0 0 0 0 0 0 0 0 0 0 0 0 0 0 0
0 0 0 0 0 0 0 0 0 0 0 0 0 0 0 0 0 0 0 0 0 0 0 0 0 0 0 0 0 0 0 0 0 0 0 0 0 0 0 0 0 0 0

GEFSSE_con_cape1000_186.txt.gz
Probability
0 3 29 29 29 39 45 55 58 58 58 52 52 52 52 52 45 48 45 45 45 52 52 48 42 32 35 39 55 61 61 65 58 58 52 58 58 65 68 65 61 55 58
0 6 26 16 23 29 39 48 48 52 48 45 45 45 42 42 42 42 39 35 35 39 39 42 35 35 35 35 42 52 55 58 61 65 65 52 61 71 65 68 71 58 55
3 6 23 23 29 26 35 39 42 39 35 35 32 42 42 42 39 42 39 32 39 35 35 39 39 35 39 39 42 52 58 55 61 58 55 32 35 65 61 71 71 68 61
6 10 6 26 32 32 29 29 35 32 32 29 29 32 32 39 35 32 29 29 39 35 35 39 39 32 29 26 35 48 48 61 58 52 29 29 32 55 58 58 48 61 61
3 6 16 32 26 26 26 26 29 26 26 26 16 23 16 16 16 16 13 19 26 29 29 32 35 26 29 32 32 39 42 48 52 32 23 16 26 52 58 45 55 55 52
3 6 16 29 26 26 23 26 16 16 16 13 13 13 10 13 16 13 16 13 13 19 16 29 26 26 19 26 39 35 39 52 19 6 13 19 19 55 48 45 48 48 45
3 3 10 13 13 16 16 16 16 16 13 13 13 13 6 6 10 10 13 13 10 16 19 26 26 23 29 32 32 32 39 42 3 3 10 16 35 58 48 45 48 48 48
3 6 10 13 10 10 10 10 13 16 10 10 10 6 3 10 6 13 13 13 13 16 19 23 19 26 29 29 23 29 42 29 16 10 16 16 39 45 45 42 45 58 48
3 6 6 6 6 10 13 10 10 10 6 6 3 6 10 13 10 10 10 13 13 16 16 19 19 26 23 26 32 35 32 32 3 10 19 19 39 48 42 42 42 48 52
3 3 3 3 3 3 3 6 3 6 6 6 3 3 6 6 6 6 6 10 16 16 13 13 19 16 32 35 26 23 23 13 3 6 10 23 45 45 39 52 48 48 42
3 3 3 3 3 3 3 3 3 3 3 3 3 3 0 0 0 0 3 16 16 13 13 10 13 10 19 16 16 13 6 0 6 6 19 35 35 48 42 52 48 48 45
3 3 3 3 3 3 3 0 0 0 0 0 0 0 0 0 0 0 0 3 3 13 6 13 16 6 3 3 6 6 0 3 3 13 19 39 35 39 42 45 48 52 48
3 3 3 3 3 0 0 0 0 0 0 0 0 0 0 0 0 0 0 0 0 0 0 0 0 0 0 0 0 0 0 0 0 0 16 35 42 48 42 42 45 45 45
3 3 3 3 0 0 0 0 0 0 0 0 0 0 0 0 0 0 0 0 0 0 0 0 0 0 0 0 0 0 0 0 0 0 10 39 42 42 35 42 42 42 42
3 3 3 3 0 0 0 0 0 0 0 0 0 0 0 0 0 0 0 0 0 0 0 0 0 0 0 0 0 0 0 0 0 0 0 23 35 39 35 29 42 39 42
3 3 0 0 0 0 0 0 0 0 0 0 0 0 0 0 0 0 0 0 0 0 0 0 0 0 0 0 0 0 0 0 0 0 0 0 16 29 35 29 29 39 39
3 3 0 0 0 0 0 0 0 0 0 0 0 0 0 0 0 0 0 0 0 0 0 0 0 0 0 0 0 0 0 0 0 0 0 0 0 6 23 19 23 26 29
0 0 0 0 0 0 0 0 0 0 0 0 0 0 0 0 0 0 0 0 0 0 0 0 0 0 0 0 0 0 0 0 0 0 0 0 0 0 3 13 19 19 23
0 0 0 0 0 0 0 0 0 0 0 0 0 0 0 0 0 0 0 0 0 0 0 0 0 0 0 0 0 0 0 0 0 0 0 0 0 0 0 0 3 13 16
0 0 0 0 0 0 0 0 0 0 0 0 0 0 0 0 0 0 0 0 0 0 0 0 0 0 0 0 0 0 0 0 0 0 0 0 0 0 0 0 0 0 6
0 0 0 0 0 0 0 0 0 0 0 0 0 0 0 0 0 0 0 0 0 0 0 0 0 0 0 0 0 0 0 0 0 0 0 0 0 0 0 0 0 0 0
0 0 0 0 0 0 0 0 0 0 0 0 0 0 0 0 0 0 0 0 0 0 0 0 0 0 0 0 0 0 0 0 0 0 0 0 0 0 0 0 0 0 0
0 0 0 0 0 0 0 0 0 0 0 0 0 0 0 0 0 0 0 0 0 0 0 0 0 0 0 0 0 0 0 0 0 0 0 0 0 0 0 0 0 0 0
0 0 0 0 0 0 0 0 0 0 0 0 0 0 0 0 0 0 0 0 0 0 0 0 0 0 0 0 0 0 0 0 0 0 0 0 0 0 0 0 0 0 0
0 0 0 0 0 0 0 0 0 0 0 0 0 0 0 0 0 0 0 0 0 0 0 0 0 0 0 0 0 0 0 0 0 0 0 0 0 0 0 0 0 0 0
0 0 0 0 0 0 0 0 0 0 0 0 0 0 0 0 0 0 0 0 0 0 0 0 0 0 0 0 0 0 0 0 0 0 0 0 0 0 0 0 0 0 0

GEFSSE_con_cape1000_192.txt.gz
Probability
6 10 16 23 32 35 42 52 55 55 52 52 52 48 48 45 39 48 42 39 42 32 32 35 39 42 45 52 55 58 55 55 58 55 61 61 68 68 71 68 61 58 61
3 10 19 23 26 29 32 42 52 52 48 39 35 35 32 35 35 32 39 35 42 32 26 26 35 39 35 45 45 52 55 58 48 45 45 55 61 65 65 61 61 58 65
3 16 16 16 26 26 35 35 32 35 29 29 26 26 26 29 26 26 42 45 42 42 39 32 29 32 35 45 48 48 48 45 52 45 48 45 52 52 48 48 52 65 52
3 13 13 13 26 26 29 29 32 29 29 19 16 16 16 16 16 23 32 35 35 42 45 39 35 35 32 39 42 42 39 39 45 42 45 45 55 48 45 39 48 58 55
10 16 16 13 19 23 23 19 26 23 16 13 13 13 13 13 13 16 23 35 35 39 35 35 35 35 29 32 42 32 35 42 42 39 39 48 61 58 39 39 52 52 52
10 13 10 19 16 19 19 16 16 13 13 10 10 13 6 10 10 10 16 19 26 23 26 29 26 29 35 32 35 35 35 35 29 35 45 48 52 48 35 42 45 35 39
3 3 6 13 10 16 16 16 13 13 13 13 10 13 10 10 13 10 13 13 19 23 23 23 32 32 29 29 35 35 19 23 23 32 39 39 35 42 45 42 48 35 32
3 3 6 10 10 10 10 10 10 6 6 3 6 6 6 6 10 10 10 13 16 19 23 29 23 23 23 26 26 29 19 19 23 19 29 35 45 42 45 45 45 39 32
3 6 6 3 3 6 10 6 6 3 6 3 3 6 6 6 10 6 10 6 16 19 23 29 19 13 19 29 29 26 23 26 13 19 13 39 39 42 48 39 35 32 35
6 6 6 3 3 3 3 3 3 3 3 3 3 3 3 3 6 6 3 10 13 16 16 23 13 13 19 23 29 16 16 19 16 13 26 29 32 45 45 39 39 42 42
3 6 3 3 3 3 3 3 3 3 3 3 3 3 3 3 0 0 0 10 10 10 16 6 3 10 13 16 19 13 13 16 19 23 29 32 42 42 39 39 45 39 39
3 3 3 3 3 3 3 3 3 0 3 3 3 0 0 0 0 0 6 10 10 13 13 10 10 6 3 6 6 6 6 10 16 13 29 32 39 32 42 42 45 42 45
3 3 3 3 3 3 3 3 3 0 3 0 0 0 0 0 0 0 3 3 3 3 3 10 6 0 3 3 3 6 6 6 10 16 26 26 26 42 42 39 35 35 42
3 3 3 3 3 3 3 3 0 0 0 0 0 0 0 0 0 0 3 3 3 6 13 6 10 3 6 3 3 3 3 3 6 16 19 29 32 29 29 32 32 35 39
3 3 3 3 3 3 3 0 0 0 0 0 0 0 0 0 0 0 3 3 3 6 13 10 3 3 0 0 3 3 3 3 3 3 13 19 32 29 26 29 32 32 32
3 3 3 3 3 3 3 0 0 0 0 0 0 0 0 0 0 3 3 3 3 6 10 6 0 3 3 6 3 3 3 3 6 6 10 16 16 23 29 29 23 29 29
3 3 3 3 3 3 0 0 0 0 0 0 0 0 0 0 0 3 3 3 3 3 3 0 0 0 0 3 3 3 3 6 3 3 3 6 10 13 23 19 26 19 23
3 3 3 3 3 3 0 0 0 0 0 0 0 0 0 0 0 3 3 3 0 3 3 6 0 6 0 3 3 3 3 10 3 3 6 6 6 10 6 13 16 16 13
3 3 3 3 3 3 0 0 0 0 0 0 0 0 0 0 0 3 3 3 0 0 0 0 6 6 3 0 3 3 6 6 3 3 6 3 0 3 3 3 6 13 10
3 3 3 3 3 3 0 0 0 0 0 0 0 0 0 0 0 3 3 0 3 0 0 0 6 3 3 3 0 3 3 3 3 0 0 0 3 0 6 3 6 3 10
0 0 0 0 0 0 0 0 0 0 0 0 0 0 0 0 3 3 0 0 3 3 0 0 0 6 0 0 3 3 3 0 3 6 3 6 6 6 3 3 3 6 6
0 0 0 0 0 0 0 0 0 0 0 0 0 0 0 0 0 0 0 0 0 3 0 0 0 6 3 0 3 3 3 0 0 0 3 3 3 3 3 3 3 3 6
3 0 0 0 0 0 0 0 0 0 0 0 0 0 0 0 0 0 0 0 0 0 3 3 0 0 3 0 0 0 3 0 3 0 0 3 3 3 3 3 3 3 3
3 0 0 0 0 0 0 0 0 3 0 0 0 0 0 0 0 0 0 0 0 0 3 3 0 6 3 0 0 0 0 0 0 0 0 0 0 0 0 0 3 3 3
3 0 0 0 0 0 0 3 3 3 3 0 0 0 0 0 0 3 3 3 3 3 3 3 3 3 3 3 3 0 0 0 0 3 0 0 0 0 0 0 0 3 0
0 0 0 0 0 0 3 3 3 3 3 3 3 3 3 3 6 3 3 3 3 3 3 3 3 3 0 0 0 3 3 0 0 0 0 0 0 0 0 0 0 0 3

GEFSSE_con_cape1000_198.txt.gz
Probability
19 13 39 42 32 32 39 48 48 52 45 42 39 48 42 35 39 42 39 35 32 26 35 35 48 52 48 45 45 48 52 52 48 55 71 61 74 68 68 68 68 58 65
13 13 35 35 35 32 32 39 42 32 29 29 29 29 26 32 32 29 32 32 32 23 23 35 42 39 39 48 52 42 35 42 48 48 61 58 68 68 68 68 68 55 61
10 19 29 32 35 35 32 35 32 32 23 26 19 19 23 23 32 39 35 39 39 32 26 29 35 39 32 32 32 32 35 39 45 48 52 52 55 61 55 55 55 58 55
10 13 19 32 32 32 32 29 19 23 13 13 16 13 23 26 29 35 32 39 42 42 32 32 39 35 35 32 32 26 29 42 42 52 35 52 39 52 52 48 52 48 58
10 10 19 23 23 23 23 23 19 19 16 13 13 6 13 19 26 23 32 23 39 39 32 35 42 42 35 35 29 23 26 32 48 35 35 35 29 58 48 48 52 52 55
6 6 16 23 19 13 16 16 16 13 13 13 13 10 10 16 16 19 16 19 23 29 39 39 32 26 26 26 19 16 26 35 39 26 29 29 29 55 55 52 45 48 52
3 3 3 16 13 10 10 13 13 13 13 13 6 10 10 10 16 19 23 23 19 23 32 26 26 29 29 26 19 19 32 32 23 19 29 23 29 58 48 39 45 45 39
3 3 3 10 10 6 6 6 3 3 3 3 3 3 6 10 16 19 19 16 23 23 26 23 23 23 23 23 16 13 29 35 19 16 19 19 48 48 42 48 39 42 39
3 3 3 3 6 10 6 3 6 3 3 3 3 3 6 16 16 13 10 10 13 13 10 16 16 23 19 16 16 16 26 35 6 16 23 29 45 39 42 42 48 39 39
3 3 3 3 3 3 3 3 3 3 3 3 3 3 10 10 6 10 6 16 10 6 10 16 16 13 13 16 16 10 19 26 10 19 19 26 42 42 45 45 48 55 55
3 3 3 3 3 3 3 3 3 3 3 3 3 3 6 0 0 0 10 13 6 0 10 10 13 10 16 13 6 10 10 6 6 13 16 32 35 45 45 42 48 55 58
3 3 3 3 3 3 3 3 0 0 3 3 0 0 0 0 0 0 10 10 3 6 3 10 10 10 10 6 3 3 3 3 10 10 13 29 39 32 35 39 42 45 45
3 3 3 3 3 3 0 0 0 0 0 0 0 0 0 0 0 0 3 3 3 3 3 6 6 3 3 0 0 0 0 3 10 10 16 32 23 29 29 35 39 42 42
3 3 3 3 3 3 0 0 0 0 0 0 0 0 0 0 0 0 3 3 3 3 6 6 3 3 0 0 0 0 0 6 6 6 16 32 26 26 23 26 32 35 42
0 3 3 0 3 0 0 0 0 0 0 0 0 0 0 0 0 0 3 3 3 3 3 6 3 3 0 0 0 3 3 3 3 3 10 23 29 29 29 32 35 39 42
0 0 3 3 3 0 0 0 0 0 0 0 0 0 0 0 0 0 3 3 3 3 3 0 3 0 0 0 0 3 3 3 3 3 3 10 23 23 32 32 32 32 39
0 0 3 3 3 0 0 0 0 0 0 0 0 0 0 0 0 3 3 3 3 3 0 0 0 0 0 0 0 3 3 3 3 3 3 6 3 13 19 29 23 26 26
0 0 3 0 0 0 0 0 0 0 0 0 0 0 0 0 0 3 0 0 0 0 0 0 0 0 0 0 0 3 3 3 3 3 3 3 3 6 6 13 23 23 19
0 0 0 0 0 0 0 0 0 0 0 0 0 0 0 0 0 0 0 0 0 0 0 0 0 0 0 0 0 3 3 3 3 3 3 3 3 3 3 6 13 16 19
0 0 0 0 3 3 0 0 0 0 0 0 0 0 0 0 0 0 0 0 0 0 0 0 0 0 0 0 0 3 3 0 0 0 3 3 3 0 3 3 3 6 10
0 0 0 0 0 0 0 0 0 0 0 0 0 0 0 0 0 0 0 0 0 0 0 0 0 0 0 0 0 0 3 0 0 0 0 0 3 3 0 3 3 3 3
0 0 0 0 0 0 0 0 0 0 0 0 0 0 0 0 0 0 0 0 0 0 0 0 0 0 0 0 0 0 0 0 0 0 0 3 0 3 3 3 0 3 3
3 0 0 0 0 0 0 0 0 0 0 0 0 0 0 0 0 0 0 0 0 0 3 3 3 0 0 0 0 0 0 0 0 0 0 0 0 0 0 0 0 3 0
3 3 0 0 0 0 0 0 0 0 0 3 0 0 0 0 0 0 0 0 0 3 3 3 3 3 3 0 0 0 0 0 0 0 0 0 0 0 0 0 0 0 0
3 3 0 0 0 0 0 0 3 3 3 3 0 0 0 0 0 0 0 0 0 0 0 0 3 3 3 3 0 3 3 0 0 0 0 0 0 0 0 0 0 0 0
0 3 3 0 0 0 3 3 3 3 3 3 0 0 0 3 0 0 0 0 0 0 0 0 0 0 0 0 0 3 0 0 0 0 0 0 0 0 0 0 0 0 0

GEFSSE_con_cape1000_204.txt.gz
Probability
6 19 48 48 42 45 48 52 55 52 48 48 48 42 42 42 35 42 39 35 48 42 48 52 45 35 35 35 42 52 55 55 58 61 61 68 68 65 68 71 65 65 68
6 19 48 42 45 48 52 52 48 45 39 35 32 35 39 39 32 39 32 35 35 32 39 39 39 35 35 35 45 45 45 48 52 58 58 65 65 58 65 61 61 55 61
13 26 42 42 48 45 48 48 45 42 35 29 32 39 39 42 39 32 32 29 29 29 39 39 35 32 39 35 39 45 48 52 45 48 42 32 39 55 61 55 55 61 58
13 19 32 42 42 42 45 32 23 19 19 26 26 29 32 32 32 32 35 32 32 29 32 29 29 26 35 39 39 39 45 42 42 35 19 23 35 39 55 58 52 52 58
10 19 26 29 32 32 29 23 19 23 19 19 19 19 26 26 26 26 32 29 32 29 23 29 32 29 29 39 29 29 45 39 32 23 13 13 19 58 52 55 55 58 48
6 6 13 23 26 23 23 23 16 16 16 13 16 16 16 16 16 26 26 32 32 32 26 29 32 29 23 32 29 26 32 32 19 3 10 13 23 48 48 55 55 55 58
3 3 6 19 19 19 16 16 13 10 10 13 13 13 10 16 19 26 23 23 26 29 29 29 26 26 26 26 32 29 32 29 3 6 6 10 23 45 52 55 55 55 52
3 3 3 16 16 16 16 10 6 6 6 10 13 13 10 13 19 26 16 16 23 23 23 26 26 23 29 32 32 26 29 23 13 10 13 16 35 48 52 48 45 42 45
3 3 3 3 6 19 16 13 6 6 6 6 6 6 10 13 16 23 13 13 16 13 13 19 13 16 23 29 32 32 19 23 6 13 16 19 29 29 39 48 45 45 48
3 3 3 3 3 3 3 6 6 6 3 3 3 3 6 10 13 13 10 10 6 10 10 10 10 10 10 26 26 23 16 10 3 6 16 16 32 35 45 48 52 42 45
3 3 3 3 3 3 3 3 3 3 6 6 3 6 3 0 0 0 0 10 6 10 10 6 6 6 6 3 13 10 6 3 3 6 16 32 35 39 35 42 45 48 52
3 3 3 3 3 3 3 0 0 3 3 0 0 0 0 0 0 0 0 6 6 3 6 10 6 6 0 0 3 3 0 0 3 3 16 26 29 32 35 35 39 42 45
3 3 3 3 3 3 0 0 0 0 0 0 0 0 0 0 0 0 0 0 0 3 0 0 0 0 0 0 0 0 0 0 3 3 13 23 29 26 26 29 35 39 35
0 0 3 3 3 0 0 0 0 0 0 0 0 0 0 0 0 0 0 0 0 0 0 0 0 0 0 0 0 0 0 0 0 3 10 26 23 26 29 26 35 29 29
0 0 3 3 0 0 0 0 0 0 0 0 0 0 0 0 0 0 0 0 0 0 0 0 0 0 0 0 0 0 0 0 0 0 10 29 26 26 23 29 35 26 32
0 0 0 0 0 0 0 0 0 0 0 0 0 0 0 0 0 0 0 0 0 0 0 0 0 0 0 0 0 0 0 0 3 3 3 13 26 29 29 29 26 35 32
0 0 0 0 0 0 0 0 0 0 0 0 0 0 0 0 0 0 0 0 0 0 0 0 0 0 0 0 0 0 0 0 3 3 3 6 6 13 23 23 26 32 29
0 0 0 0 0 0 0 0 0 0 0 0 0 0 0 0 0 0 0 0 0 0 0 0 0 0 0 0 0 0 0 0 0 3 3 3 6 6 10 16 23 26 16
0 0 0 0 0 0 0 0 0 0 0 0 0 0 0 0 0 0 0 0 0 0 0 0 0 0 0 0 0 0 0 0 0 3 3 3 0 3 3 10 16 16 13
0 0 0 0 0 0 0 0 0 0 0 0 0 0 0 0 0 0 0 0 0 0 0 0 0 0 0 0 0 0 0 0 0 0 3 0 0 3 3 3 3 6 10
0 0 0 0 0 0 0 0 0 0 0 0 0 0 0 0 0 0 0 0 0 0 0 0 0 0 0 0 0 0 0 0 0 0 0 0 0 3 3 0 0 0 0
0 0 0 0 0 0 0 0 0 0 0 0 0 0 0 0 0 0 0 0 0 0 0 0 0 0 0 0 0 0 0 0 0 0 0 0 0 0 0 0 0 0 0
0 0 0 0 0 0 0 0 0 0 0 0 0 0 0 0 0 0 0 0 0 0 0 0 0 0 0 0 0 0 0 0 0 0 0 0 0 0 0 0 0 0 0
0 0 0 0 0 0 0 0 0 0 0 0 0 0 0 0 0 0 0 0 0 0 0 0 0 0 0 0 0 0 0 0 0 0 0 0 0 0 0 0 0 0 0
0 0 0 0 0 0 0 0 0 0 0 0 0 0 0 0 0 0 0 0 0 0 0 0 0 0 0 0 0 0 0 0 0 0 0 0 0 0 0 0 0 0 0
0 0 0 0 0 0 0 0 0 0 0 0 0 0 0 0 0 0 0 0 0 0 0 0 0 0 0 0 0 0 0 0 0 0 0 0 0 0 0 0 0 0 0

GEFSSE_con_cape1000_210.txt.gz
Probability
0 3 26 39 32 32 35 42 39 35 35 39 39 35 32 35 32 29 35 48 45 45 39 42 42 45 45 42 45 55 55 61 58 52 65 68 68 71 68 65 55 48 61
0 6 19 32 39 39 39 35 35 32 29 32 35 32 26 26 29 32 32 32 29 29 29 39 39 42 42 42 45 45 52 52 48 45 58 52 55 61 61 68 58 45 55
3 16 16 32 35 35 35 29 26 29 29 29 35 39 32 26 29 32 23 26 26 26 23 26 32 35 39 42 39 42 45 45 39 45 42 39 39 52 55 61 55 61 55
13 16 16 29 42 39 32 23 19 13 13 16 19 23 26 29 23 19 19 19 23 26 23 29 35 35 35 39 39 39 42 39 39 29 19 19 23 39 52 55 58 52 55
13 10 16 26 32 35 23 13 13 13 16 19 19 23 16 16 23 23 16 23 26 35 32 32 35 29 32 29 29 35 32 32 32 19 10 13 19 39 52 48 48 48 52
0 6 10 26 26 16 16 13 13 13 16 19 23 19 19 23 23 19 19 23 19 26 32 29 29 26 19 23 32 26 32 23 13 3 3 13 23 42 55 55 52 48 48
0 3 6 26 26 16 10 13 10 16 16 13 16 19 19 19 19 16 16 23 19 23 29 29 29 19 19 23 29 32 26 19 3 3 6 10 23 55 55 52 55 48 42
0 0 3 13 13 6 6 6 6 6 13 10 10 16 16 13 16 16 16 23 23 29 29 29 29 19 19 19 26 26 23 10 10 3 6 6 32 52 48 52 48 55 48
0 3 3 3 3 10 3 6 10 6 6 6 6 13 16 16 16 19 16 19 23 26 29 23 19 23 16 23 26 19 16 16 0 3 10 10 35 42 39 48 52 58 58
0 3 3 3 3 3 3 3 6 10 6 6 6 6 16 13 10 6 10 13 19 13 13 13 26 19 19 23 19 23 19 6 0 3 10 13 29 29 39 48 45 55 52
0 0 3 0 3 0 3 3 3 3 3 3 0 0 0 0 0 0 0 10 10 10 10 10 16 13 13 16 19 13 3 0 3 3 10 23 32 35 42 45 45 48 48
0 0 0 0 0 0 3 0 0 3 0 0 0 0 0 0 0 0 0 0 6 6 3 3 6 0 0 0 0 3 0 3 3 3 10 23 26 29 32 35 39 39 39
0 0 0 0 0 0 0 0 0 0 0 0 0 0 0 0 0 0 0 0 0 0 0 0 0 0 0 0 0 0 0 0 3 6 10 23 19 23 19 26 19 26 29
0 0 0 0 0 0 0 0 0 0 0 0 0 0 0 0 0 0 0 0 0 0 0 0 0 0 0 0 0 0 0 0 0 3 3 19 19 26 23 19 23 26 29
0 0 0 0 0 0 0 0 0 0 0 0 0 0 0 0 0 0 0 0 0 0 0 0 0 0 0 0 0 0 0 0 0 0 3 19 19 16 23 19 16 26 26
0 0 0 3 0 0 0 0 0 0 0 0 0 0 0 0 0 0 0 0 0 0 0 0 0 0 0 0 0 0 0 0 0 0 0 0 10 16 19 10 19 19 23
0 0 0 3 0 0 0 0 0 0 0 0 0 0 0 0 0 0 0 0 0 0 0 0 0 0 0 0 0 0 0 0 0 0 0 0 3 6 10 13 16 19 19
0 0 0 0 0 0 0 0 0 0 0 0 0 0 0 0 0 0 0 0 0 0 0 0 0 0 0 0 0 0 0 0 0 0 0 0 3 6 6 6 10 10 19
0 0 0 0 0 0 0 0 0 0 0 0 0 0 0 0 0 0 0 0 0 0 0 0 0 0 0 0 0 0 0 0 0 0 0 0 0 3 6 6 6 10 13
0 0 0 0 0 0 0 0 0 0 0 0 0 0 0 0 0 0 0 0 0 0 0 0 0 0 0 0 0 0 0 0 0 0 0 0 0 0 0 0 0 3 6
0 0 0 0 0 0 0 0 0 0 0 0 0 0 0 0 0 0 0 0 0 0 0 0 0 0 0 0 0 0 0 0 0 0 0 0 0 0 0 0 0 0 0
0 0 0 0 0 0 0 0 0 0 0 0 0 0 0 0 0 0 0 0 0 0 0 0 0 0 0 0 0 0 0 0 0 0 0 0 0 0 0 0 0 0 0
0 0 0 0 0 0 0 0 0 0 0 0 0 0 0 0 0 0 0 0 0 0 0 0 0 0 0 0 0 0 0 0 0 0 0 0 0 0 0 0 0 0 0
0 0 0 0 0 0 0 0 0 0 0 0 0 0 0 0 0 0 0 0 0 0 0 0 0 0 0 0 0 0 0 0 0 0 0 0 0 0 0 0 0 0 0
0 0 0 0 0 0 0 0 0 0 0 0 0 0 0 0 0 0 0 0 0 0 0 0 0 0 0 0 0 0 0 0 0 0 0 0 0 0 0 0 0 0 0
0 0 0 0 0 0 0 0 0 0 0 0 0 0 0 0 0 0 0 0 0 0 0 0 0 0 0 0 0 0 0 0 0 0 0 0 0 0 0 0 0 0 0

GEFSSE_con_cape1000_216.txt.gz
Probability
10 16 19 29 23 29 39 39 42 35 39 26 23 23 26 26 23 39 45 39 45 48 42 39 45 48 45 48 52 55 55 48 48 58 68 68 71 71 61 61 61 48 68
6 13 26 19 32 26 29 29 39 42 19 23 23 23 23 26 29 39 42 45 39 35 42 35 39 39 42 39 52 45 45 42 42 42 48 48 58 61 71 71 68 61 61
16 16 19 29 23 23 26 23 26 23 19 23 26 23 23 23 23 23 29 35 39 29 35 35 35 35 39 35 35 42 39 32 35 35 39 42 45 58 52 61 48 55 58
13 13 10 29 26 23 26 26 19 19 19 26 23 19 16 19 19 26 32 32 35 35 35 32 35 32 35 35 39 42 32 29 26 23 23 29 42 52 48 42 48 48 45
13 13 13 23 26 23 16 19 19 19 19 16 16 13 16 23 19 16 23 29 32 32 35 35 32 32 29 29 29 39 32 23 19 23 29 42 52 45 48 48 48 45 52
13 10 10 23 23 13 23 19 16 16 16 19 19 19 16 16 19 19 23 23 23 29 32 32 26 19 19 23 29 32 29 13 19 23 32 39 42 45 45 42 52 52 48
10 6 3 19 19 19 19 23 23 19 13 19 16 19 19 16 16 19 26 26 23 29 29 29 23 23 19 23 19 19 19 13 10 19 26 35 35 42 48 42 45 48 48
0 3 6 13 16 16 16 19 23 16 13 16 16 19 19 19 13 16 19 26 19 26 23 29 19 16 23 23 19 16 19 13 6 10 29 39 35 35 35 35 45 42 48
0 3 3 3 6 13 10 13 10 13 6 10 13 16 16 19 13 10 13 16 19 19 19 16 16 16 19 26 23 19 16 10 13 19 10 32 35 26 35 32 42 35 35
0 3 3 3 3 6 6 3 3 6 6 6 10 13 10 13 10 10 13 13 16 13 13 13 13 16 23 19 19 3 6 10 10 13 26 29 26 35 32 29 35 39 35
0 3 0 3 3 3 3 3 3 3 0 0 0 0 0 0 0 0 0 6 10 13 16 13 10 16 16 13 10 6 6 3 16 23 19 23 23 29 29 32 42 39 35
0 0 0 0 0 0 0 3 3 0 0 0 0 0 0 0 0 0 0 3 6 10 13 10 10 3 10 13 6 6 6 3 10 13 13 13 16 16 23 23 23 26 26
0 0 0 0 0 0 3 3 3 0 0 0 0 0 0 0 0 0 0 0 3 0 6 3 0 3 6 10 13 10 10 3 3 13 13 16 16 16 13 19 19 19 19
0 0 0 0 0 0 0 3 3 3 0 0 0 0 0 0 0 0 0 3 3 6 3 0 3 0 0 0 3 3 0 0 0 3 16 13 16 13 13 13 13 13 10
0 0 0 0 0 0 0 0 3 3 0 0 3 0 0 3 0 0 3 3 3 3 0 0 0 0 0 0 0 0 0 0 0 0 6 6 10 13 13 10 10 10 13
0 0 0 0 0 0 0 0 0 0 0 0 0 0 0 0 0 3 3 3 3 0 0 6 0 0 3 3 0 0 0 0 0 0 6 3 10 13 13 3 6 6 10
0 0 0 0 0 0 0 0 0 0 0 0 0 0 0 0 3 3 3 3 0 3 0 3 0 0 0 0 0 0 0 0 0 0 3 3 3 6 13 10 3 6 6
0 0 0 0 0 0 0 0 0 0 0 0 0 3 3 3 3 3 3 3 0 0 3 3 0 3 0 0 3 0 0 6 3 0 3 3 3 3 3 6 6 6 6
0 0 0 0 0 0 0 0 0 0 0 0 0 3 3 0 0 3 3 3 0 3 3 0 3 3 3 3 0 6 3 3 3 0 3 3 3 3 3 3 3 6 6
0 0 0 0 0 0 0 0 3 0 0 0 0 3 3 3 0 0 0 0 3 6 3 6 6 6 6 3 0 0 3 3 0 0 0 3 3 0 0 0 0 0 3
0 0 0 0 0 0 0 0 0 0 0 0 3 0 3 3 0 3 0 3 10 6 6 3 6 10 6 3 3 3 0 0 3 0 0 0 0 0 0 0 0 0 3
3 3 0 0 0 0 3 3 3 0 0 3 6 6 0 0 3 0 3 3 6 13 10 13 13 3 3 3 0 0 0 0 0 0 6 0 0 3 0 0 0 0 0
3 3 0 0 0 0 3 3 3 3 3 3 3 6 3 3 3 3 3 6 6 3 13 10 10 6 6 0 0 0 0 0 0 0 3 0 3 3 3 3 0 0 0
3 3 0 0 0 0 3 3 3 3 3 3 3 6 3 0 0 0 0 0 3 0 3 0 10 10 6 10 3 0 0 0 0 0 0 0 0 0 3 0 0 0 0
3 3 3 0 0 0 3 3 3 3 3 3 3 3 0 0 0 0 0 0 0 0 0 0 0 0 6 6 6 3 3 0 3 0 0 0 0 0 0 3 0 0 0
3 3 3 0 0 3 3 3 3 3 3 3 3 6 0 0 0 0 0 0 0 0 0 0 0 0 0 3 3 3 3 6 3 0 3 0 3 0 0 3 0 0 0